Flag Weather past 2 weeks in Tübingen, Baden-Württemberg, Germany

Now
36 °F

Passing clouds.


Feels Like: 29 °F
Forecast: 31 / 47 °F
Wind: 8 mph from East

Location: Stuttgart-Echterdingen

Current Time: Nov 28, 2014 at 9:46:23 PM

Latest Report: Nov 28, 2014 at 9:20 PM


Visibility: 4 mi

Pressure: 29.89 "Hg

Humidity: 93%

Dew point: 34 °F

Location of TübingenLocation

Historic Weather in Tübingen — Graph

°F

Tübingen temperature yesterday

Maximum temperature yesterday: 46 °F (at 12:50 PM)
Minimum temperature yesterday: 39 °F (at 10:20 PM)
Average temperature yesterday: 42 °F

Past Weeks' High & Low Weather Summary

 TemperatureHumidityPressure
High57 °F (Nov 22, 2:20 PM)100% (Nov 14, 12:50 AM)30.30 "Hg (Nov 14, 12:50 AM)
Low34 °F (Nov 20, 2:50 AM)63% (Nov 16, 3:20 PM)29.53 "Hg (Nov 15, 10:20 PM)
Average44 °F90%29.95 "Hg
* Reported Nov 13 8:20 PM — Nov 28 8:50 PM, Tübingen, Weather by CustomWeather, © 2014

Note: Actual official high and low records may vary slightly from our data, if they occured in-between our weather recording intervals... More about our weather records

Advertising

Tübingen weather history for previous 24 hours

 ConditionsComfort  
Time TempWeatherWind HumidityBarometerVisibility
8:50 PM
Nov 28
36 °FPassing clouds.8 mph93%29.86 "Hg4 mi
8:20 PM36 °FPassing clouds.10 mph93%29.86 "Hg5 mi
7:50 PM36 °FPassing clouds.12 mph93%29.86 "Hg5 mi
7:20 PM36 °FPassing clouds.10 mph93%29.86 "Hg5 mi
6:50 PM36 °FPassing clouds.10 mph93%29.86 "Hg5 mi
6:20 PM36 °FPassing clouds.10 mph93%29.83 "Hg6 mi
5:50 PM36 °FPassing clouds.10 mph93%29.83 "Hg6 mi
5:20 PM36 °FPassing clouds.8 mph93%29.83 "HgN/A
4:50 PM36 °FPassing clouds.9 mph93%29.83 "HgN/A
4:20 PM37 °FScattered clouds.7 mph87%29.80 "HgN/A
3:50 PM37 °FScattered clouds.12 mph87%29.80 "HgN/A
3:20 PM39 °FScattered clouds.10 mph81%29.80 "HgN/A
2:50 PM39 °FScattered clouds.12 mph87%29.80 "HgN/A
2:20 PM41 °FScattered clouds.10 mph81%29.80 "HgN/A
1:50 PM43 °FSunny.9 mph81%29.80 "Hg10 mi
1:20 PM43 °FSunny.9 mph81%29.80 "Hg10 mi
12:50 PM43 °FSunny.8 mph76%29.80 "Hg10 mi
12:20 PM43 °FSunny.7 mph81%29.80 "Hg10 mi
11:50 AM43 °FScattered clouds.7 mph81%29.83 "HgN/A
11:20 AM41 °FScattered clouds.7 mph87%29.83 "HgN/A
10:50 AM39 °FScattered clouds.9 mph87%29.83 "HgN/A
10:20 AM39 °FPassing clouds.9 mph87%29.83 "Hg5 mi
9:50 AM37 °FPassing clouds.9 mph93%29.83 "Hg4 mi
9:20 AM37 °FPassing clouds.6 mph100%29.83 "Hg4 mi
8:50 AM36 °FFog.5 mph100%29.83 "Hg3 mi
8:20 AM34 °FFog.5 mph100%29.83 "Hg3 mi
7:50 AM34 °FFog.5 mph100%29.80 "Hg3 mi
7:20 AM34 °FPassing clouds.5 mph100%29.80 "Hg4 mi
6:50 AM36 °FPassing clouds.1 mph100%29.80 "Hg4 mi
6:20 AM34 °FPassing clouds.3 mph100%29.80 "Hg4 mi
5:50 AM34 °FLight fog.2 mph100%29.77 "Hg5 mi
5:20 AM34 °FPassing clouds.1 mph100%29.77 "Hg5 mi
4:50 AM34 °FPassing clouds.1 mph100%29.80 "Hg5 mi
4:20 AM34 °FPassing clouds.2 mph100%29.80 "Hg5 mi
3:50 AM36 °FPassing clouds.1 mph100%29.80 "Hg5 mi
3:20 AM36 °FClear.1 mph100%29.80 "Hg5 mi
2:50 AM36 °FClear.2 mph100%29.80 "Hg5 mi
2:20 AM36 °FClear.1 mph100%29.80 "Hg5 mi
1:50 AM36 °FPassing clouds.2 mph100%29.80 "Hg5 mi
1:20 AM37 °FPassing clouds.2 mph93%29.80 "HgN/A
12:50 AM37 °FPassing clouds.2 mph93%29.80 "HgN/A
12:20 AM37 °FPassing clouds.3 mph93%29.80 "HgN/A
11:50 PM
Nov 27
39 °FPartly cloudy.2 mph93%29.80 "HgN/A
11:20 PM39 °FPartly cloudy.2 mph93%29.80 "HgN/A
10:50 PM39 °FPartly cloudy.3 mph93%29.80 "HgN/A
10:20 PM39 °FPassing clouds.2 mph93%29.80 "HgN/A
9:50 PM41 °FPassing clouds.3 mph87%29.80 "HgN/A
9:20 PM41 °FPassing clouds.3 mph87%29.80 "HgN/A
Weather by CustomWeather, © 2014

See weather overviewHow to use our weather pages